Location: Newark
(52.1752°N, 10.4140°W)
Time: 22:59:17
(UTC+00:00)

N. Korean satellite - Pass Details

Date: 16 November 2019
Orbit: 456 x 506 km, 97.2° (Epoch: 09 December)

Event Time Altitude Azimuth Distance (km) Brightness Sun altitude
Rises 18:02:46 0° 182° (S) 2,554 10.5 -11.2°
Reaches altitude 10° 18:04:54 10° 190° (S) 1,686 9.6 -11.5°
Maximum altitude 18:08:21 42° 262° (W) 728 8.1 -12.0°
Drops below altitude 10° 18:11:54 10° 334° (NNW) 1,723 9.5 -12.6°
Sets 18:14:06 0° 342° (NNW) 2,618 10.3 -12.9°
